Theta_e
314 314 315 319 321 323 323 322 324 322 324 320 316 321 318 317 321 319 319 319 319 318 318 319 320 319 320 322 322 323 323 324 324 324 321 321 323 321 319 323 325 326 328 331 336 337 337 339 339 339 339 338 336 333 330 330 330 330 330 328 327 323 318 318 320 323 327 331 331 330 331 333 333 333 332 331 330 330 331 333 333 332 330 329 329 328 327 327 325 321 317 314 313 313 315 317 318
315 315 317 322 322 325 323 324 331 326 324 318 314 319 316 320 322 318 320 319 319 318 319 321 320 321 320 321 321 323 325 325 324 323 321 319 321 320 318 321 321 324 328 331 335 336 336 337 338 339 339 338 336 334 332 331 331 330 330 328 327 324 318 315 317 320 324 327 327 327 328 331 333 333 333 334 332 330 331 334 334 333 332 331 331 330 329 328 324 318 314 312 309 306 307 309 313
318 319 320 323 323 324 325 326 330 326 323 317 314 318 317 321 322 319 319 317 319 318 319 320 319 319 319 321 322 324 326 324 323 323 323 320 320 320 320 322 323 328 331 331 333 335 335 335 337 339 338 338 337 336 334 331 331 330 330 328 327 325 319 315 315 318 321 322 322 324 325 328 331 332 332 333 333 330 330 333 334 334 333 333 331 330 329 326 323 318 315 313 308 305 305 305 307
319 322 322 323 324 324 331 332 332 328 319 318 317 318 319 320 321 317 317 317 318 318 318 318 318 318 319 321 320 321 323 324 324 321 321 320 319 321 321 322 326 331 333 332 332 334 335 333 335 338 338 338 337 337 335 333 331 330 329 328 327 325 320 316 316 318 320 320 321 323 325 327 329 330 330 331 331 331 331 331 332 333 332 332 331 329 326 324 322 319 316 314 309 305 305 305 306
319 322 322 322 325 324 331 330 333 332 319 321 319 316 319 320 320 315 315 317 317 318 318 318 318 317 319 320 319 320 322 322 324 321 318 319 318 320 321 322 327 331 333 332 331 333 334 332 334 337 338 337 337 336 335 334 332 329 328 328 327 326 320 316 317 318 320 322 324 325 326 327 328 329 329 330 330 330 331 331 331 330 330 330 329 326 324 323 323 321 317 315 311 306 305 305 305
319 321 321 320 322 322 329 325 324 325 319 323 319 316 319 317 317 315 315 316 316 318 317 318 317 317 321 320 319 320 321 321 321 320 318 318 319 320 321 322 326 330 333 332 330 332 333 332 333 336 337 337 337 336 335 334 332 330 328 327 326 326 321 316 317 319 321 325 326 325 325 327 328 328 328 330 330 330 330 331 331 328 328 327 327 326 326 326 325 322 319 317 313 308 305 304 305
320 321 320 323 323 320 328 324 319 322 317 318 318 317 317 313 315 315 315 315 316 317 316 318 316 317 320 320 320 318 319 320 319 319 318 318 319 320 321 323 326 330 333 333 329 331 332 331 332 335 337 337 337 336 335 334 332 331 330 328 326 326 322 317 317 318 321 326 326 325 324 326 327 328 329 330 331 331 331 332 331 329 327 327 327 328 328 327 325 322 320 318 315 310 305 304 305
321 320 320 329 332 327 330 324 320 324 317 314 316 316 314 313 315 314 315 315 316 316 316 317 316 319 318 318 320 318 316 318 319 318 319 319 319 320 320 323 327 330 334 334 331 331 332 333 334 334 336 337 337 337 336 335 333 332 331 329 326 326 324 319 317 318 320 324 327 327 326 325 326 327 329 329 330 331 331 332 332 330 329 329 330 330 329 327 324 322 319 317 316 313 307 305 305
320 321 319 327 333 330 328 322 319 319 317 315 314 315 315 315 315 315 315 315 315 315 316 317 317 319 318 318 319 317 314 315 318 318 320 320 321 321 320 324 328 331 334 336 335 333 333 334 334 334 335 336 337 337 336 336 334 332 331 329 327 326 325 321 317 317 319 322 326 327 327 327 328 328 328 329 330 329 329 332 332 331 331 331 331 330 328 325 323 320 317 315 315 314 309 305 305
319 320 317 325 332 325 320 320 321 318 317 316 314 315 315 315 315 315 315 315 315 315 317 317 317 318 318 318 318 316 314 314 316 318 319 320 322 322 323 325 330 333 334 337 339 337 335 332 332 334 334 335 336 337 336 336 336 334 332 329 327 325 326 324 319 317 319 322 325 325 327 329 329 329 329 329 330 329 329 331 331 331 332 331 331 330 326 323 322 320 315 314 315 315 310 306 304
319 317 317 327 330 324 321 321 320 318 317 316 315 316 316 316 315 314 315 315 315 316 316 317 317 316 315 315 316 315 313 312 315 316 318 321 323 323 324 327 330 333 334 338 339 338 336 332 331 333 334 335 335 336 336 336 336 334 333 330 327 326 326 327 323 319 319 323 326 326 327 329 329 329 329 329 329 328 329 330 331 331 332 332 331 328 324 323 323 320 316 314 315 314 310 306 304
318 320 331 331 325 326 325 322 320 318 318 318 317 316 316 316 316 315 315 315 315 315 315 316 317 316 315 314 314 313 312 312 313 314 316 321 324 324 324 326 328 330 333 338 339 338 337 333 331 333 334 335 335 336 336 336 336 334 334 331 329 326 326 328 327 323 320 323 326 327 327 328 329 329 329 329 327 327 328 329 331 331 330 331 329 326 324 324 324 321 316 314 315 313 310 307 304
316 321 341 329 320 328 324 321 321 320 318 318 317 316 317 316 316 316 315 316 315 315 315 316 316 317 316 314 313 312 313 312 312 313 314 320 325 325 325 325 328 329 332 335 334 333 334 330 328 330 334 334 334 335 335 335 336 335 334 333 330 327 327 327 328 326 322 322 326 327 327 328 328 329 329 328 326 327 327 328 329 329 328 328 326 324 325 325 324 321 316 313 313 312 309 307 304
315 318 335 325 318 325 322 321 320 320 320 319 317 315 317 316 316 316 316 317 315 315 315 315 316 317 316 314 313 312 313 313 313 313 313 316 321 323 325 325 326 328 331 331 328 327 327 326 326 329 332 334 334 335 335 335 335 335 334 333 332 329 327 327 327 328 325 323 324 327 327 327 328 328 328 327 326 327 327 328 328 328 327 326 325 326 326 325 323 320 316 313 312 311 309 306 304
315 317 329 326 319 321 321 321 322 323 321 318 317 315 316 316 316 316 316 317 316 315 315 316 315 316 317 316 315 313 313 312 313 313 312 313 316 319 322 323 322 324 328 328 325 323 323 323 325 328 331 333 334 334 334 335 335 335 334 333 333 331 329 327 327 327 327 326 325 326 326 326 327 328 327 326 327 327 328 328 328 328 328 327 328 327 325 324 323 321 319 315 312 312 311 309 307
315 318 329 328 319 319 318 319 322 324 320 316 316 316 316 315 316 316 316 316 316 315 316 315 315 316 316 316 316 314 313 313 313 313 313 313 314 315 318 321 320 319 322 323 323 322 322 321 320 326 334 335 334 334 333 334 334 335 334 333 334 333 331 329 327 327 327 327 326 326 325 324 325 326 326 326 326 327 328 328 327 328 328 328 328 327 324 323 323 323 322 320 319 318 316 315 312
316 323 335 329 319 318 316 317 321 323 321 316 314 316 317 316 316 315 315 316 316 315 315 315 315 315 316 315 316 314 313 313 315 315 315 314 314 314 315 318 320 319 319 320 321 320 320 321 319 323 332 333 333 333 332 333 334 335 334 333 334 334 332 331 329 327 326 326 326 326 326 325 324 325 325 325 326 326 327 328 327 328 328 329 329 327 324 322 324 325 324 324 324 323 322 320 318
321 334 338 323 317 317 316 319 318 319 320 315 314 316 316 317 316 315 315 315 315 314 314 314 314 314 315 315 315 314 313 314 316 316 316 316 315 315 315 316 317 318 319 319 320 319 319 320 320 320 325 328 331 332 332 333 333 334 333 332 333 333 332 331 330 329 327 326 325 325 326 326 325 324 324 324 325 326 327 328 328 328 328 328 328 327 324 323 326 326 325 325 325 324 324 322 320
322 335 333 321 321 318 314 317 315 315 317 315 315 316 316 317 316 315 316 315 314 315 314 313 314 314 314 314 313 313 313 313 315 316 317 316 316 316 315 315 316 316 317 318 319 319 319 319 320 320 321 324 328 330 331 332 331 332 331 330 330 330 331 330 330 330 329 328 326 325 325 326 326 325 324 324 326 327 328 328 329 328 328 328 327 326 324 324 326 326 326 326 325 324 323 321 319
317 327 327 319 320 316 313 316 315 316 316 314 315 315 316 317 316 316 315 314 314 316 315 313 314 314 313 313 313 313 312 313 314 316 317 316 317 316 316 315 315 316 315 316 317 318 318 318 319 320 320 322 326 329 330 331 330 330 329 328 329 328 330 330 330 330 331 330 328 327 326 325 326 326 325 326 327 328 329 329 328 328 327 327 327 325 324 325 326 326 326 325 325 324 322 320 319
315 323 325 316 314 316 316 316 316 317 316 316 315 315 316 316 317 315 314 315 315 315 315 315 315 315 314 314 313 312 312 313 314 316 317 316 316 316 316 316 314 314 314 314 315 315 316 317 317 318 320 321 324 328 329 331 331 330 329 328 330 331 331 331 330 330 331 331 330 329 328 327 326 326 327 329 329 329 330 329 328 328 328 327 327 326 326 325 325 325 326 325 325 324 322 320 319
315 317 318 314 313 316 317 315 316 316 316 317 315 315 315 315 316 315 315 317 317 315 315 316 316 315 315 314 313 312 312 312 313 315 316 316 316 316 315 314 313 313 313 313 313 313 314 314 315 316 318 320 325 328 329 332 333 330 329 330 332 332 331 331 331 330 330 330 330 330 330 329 328 327 329 331 331 330 329 329 328 328 328 328 328 327 327 326 325 325 325 325 324 323 322 320 320
319 316 314 315 314 316 317 315 316 316 316 316 315 316 315 315 315 315 315 315 316 316 315 316 315 315 315 315 313 312 312 312 312 313 314 315 315 314 314 313 314 314 314 314 314 314 313 314 313 314 317 319 326 329 329 331 331 329 331 332 333 333 332 332 332 330 330 330 330 331 331 331 329 328 330 332 332 331 330 329 329 329 328 328 328 328 328 327 326 325 325 326 324 323 322 321 320
319 318 315 316 316 316 317 316 316 316 315 315 315 315 315 315 315 315 315 315 316 315 315 316 316 315 315 314 314 313 312 312 313 313 313 313 313 313 313 314 314 314 314 314 314 315 314 314 314 313 315 319 325 330 329 330 330 330 332 332 332 332 331 333 333 332 331 331 331 332 332 332 331 331 331 332 332 332 332 331 330 330 329 328 328 328 328 327 326 326 326 325 324 323 322 321 320
318 319 315 316 316 317 317 317 317 317 316 315 315 315 315 316 315 314 315 315 316 315 315 315 315 315 314 313 313 313 312 312 312 313 313 313 313 313 313 314 314 314 314 314 315 315 315 314 314 313 314 320 327 330 329 330 330 330 331 330 332 334 333 332 334 334 332 332 332 332 332 332 332 332 332 331 331 332 332 332 331 330 330 329 329 328 328 328 327 326 326 325 324 324 322 320 320
316 316 315 316 316 316 317 317 317 317 316 315 315 315 315 315 315 315 315 315 315 315 314 314 313 313 313 312 312 312 312 312 312 312 313 313 313 313 313 314 314 314 314 315 314 315 315 314 314 313 314 321 328 331 330 330 329 329 331 329 331 336 335 330 332 332 331 333 333 332 332 332 332 332 332 331 331 331 331 331 331 330 330 329 328 328 328 328 327 327 326 325 324 324 322 320 321
316 315 315 315 316 315 316 316 317 316 316 316 316 316 315 314 315 316 315 314 315 315 314 313 312 312 312 312 311 312 311 312 312 312 313 313 314 313 313 314 314 314 314 314 314 314 314 314 314 313 314 321 328 331 330 329 328 329 330 329 329 334 333 330 332 333 330 332 332 331 332 331 331 331 331 331 331 331 330 330 330 330 329 328 328 328 328 328 327 326 325 324 324 323 321 320 320
315 315 316 316 314 315 315 314 315 316 315 315 315 315 314 313 314 316 314 314 314 314 313 312 312 312 312 312 311 311 311 312 312 312 313 313 313 313 313 314 314 314 314 313 314 313 314 314 314 314 316 323 327 330 330 328 329 330 329 329 329 330 331 331 333 333 331 331 330 330 331 330 329 330 331 331 330 330 329 329 328 329 329 328 328 327 328 327 326 325 324 323 322 321 321 320 319
315 315 317 320 319 318 316 314 314 315 315 315 315 315 317 315 314 315 314 314 314 313 313 312 312 312 311 311 311 311 312 312 312 313 313 313 313 313 313 314 314 314 313 313 313 313 314 314 315 315 319 324 327 329 329 328 329 330 330 330 329 330 330 330 331 331 331 329 328 329 329 329 328 329 329 329 328 329 329 329 329 329 328 327 327 327 326 325 324 324 323 321 321 321 320 319 318
317 314 315 321 323 322 317 313 314 314 315 315 315 318 326 323 314 313 314 313 313 312 312 312 312 312 311 311 311 311 312 312 313 313 313 313 313 313 313 314 314 313 313 313 313 314 314 315 316 317 320 324 327 329 329 330 331 330 331 331 329 330 330 330 330 330 328 327 327 328 328 328 327 328 327 327 327 328 329 329 329 328 328 327 326 325 325 324 323 323 322 321 320 320 320 318 317
318 314 317 322 320 327 323 312 313 315 314 314 316 319 325 324 315 312 314 313 313 312 311 312 312 312 311 311 311 311 312 312 312 312 313 313 313 313 313 313 313 312 313 312 313 314 314 316 318 318 320 322 325 327 327 328 328 328 330 330 329 329 328 329 329 329 327 327 327 327 327 327 326 326 325 325 325 326 328 328 328 327 327 326 326 325 324 323 322 321 321 320 320 320 319 316 314
323 315 324 327 317 328 328 311 312 316 314 312 316 319 320 319 314 312 313 313 313 312 312 312 311 312 311 311 311 311 312 312 312 312 312 312 312 313 313 312 312 312 312 312 313 313 314 317 319 321 322 322 323 325 326 327 327 328 328 329 330 329 328 327 327 327 326 326 326 327 327 326 325 324 323 323 324 325 326 326 326 326 326 326 325 323 322 322 321 321 321 320 320 318 314 310 308
331 320 324 330 320 323 325 315 312 314 314 312 314 320 321 318 312 312 313 312 312 311 311 311 311 312 311 311 312 311 312 312 312 312 311 312 312 312 312 312 312 311 312 312 312 313 314 315 319 322 322 324 325 324 324 325 326 328 328 327 327 327 327 327 326 325 324 324 325 326 325 324 323 322 321 321 323 324 323 324 324 324 324 324 323 322 321 321 321 321 320 318 315 311 307 306 305
332 321 320 328 323 320 323 322 315 311 314 314 313 315 319 318 311 310 312 311 312 311 311 312 311 312 312 311 312 312 312 312 312 312 311 312 312 312 312 311 311 311 311 313 313 312 314 314 316 319 321 321 323 323 323 323 324 326 326 324 325 326 326 326 325 324 323 323 324 323 322 322 321 320 319 319 320 322 321 321 322 322 322 322 322 321 321 321 321 318 315 310 307 305 304 305 305
332 324 322 325 322 319 322 323 316 313 315 315 315 314 315 315 311 310 312 311 311 311 311 311 311 312 312 311 311 312 312 312 312 312 311 311 312 311 311 311 311 311 311 313 314 313 315 317 316 320 322 320 321 324 325 324 324 325 325 324 324 326 326 325 325 325 324 323 322 321 321 320 318 319 320 319 319 320 320 320 321 321 321 321 321 321 321 319 316 311 307 304 302 303 303 304 305
333 330 328 328 325 322 323 323 318 314 315 316 315 315 314 314 313 311 311 311 311 311 311 311 311 311 311 311 311 312 312 312 312 311 311 311 311 311 311 311 310 311 311 312 314 314 316 319 319 319 321 321 322 325 323 321 323 323 324 324 323 324 325 324 324 324 323 321 321 320 319 319 317 317 318 319 319 320 321 321 321 321 321 321 321 319 317 312 308 305 303 301 300 301 301 303 304
326 325 327 327 326 324 322 323 318 312 315 318 316 315 314 315 315 311 310 311 309 310 310 310 311 311 311 312 312 312 311 311 311 310 310 310 311 310 310 311 310 311 313 312 313 316 317 319 321 320 321 323 323 324 322 321 323 323 322 322 322 323 323 323 322 322 321 320 320 318 318 317 317 317 318 319 320 320 320 320 320 320 319 317 315 313 309 305 303 301 300 299 299 300 300 301 302
319 320 322 322 323 322 320 321 319 312 315 321 319 316 315 314 314 311 309 310 309 309 310 310 311 311 312 312 311 312 311 310 310 310 310 310 310 310 310 310 309 311 313 313 314 317 318 319 321 322 323 323 322 322 324 324 324 323 321 322 323 322 322 321 321 320 320 319 318 317 316 317 317 317 318 318 318 318 319 319 317 315 311 309 307 305 303 302 301 299 299 298 298 298 299 298 299
318 319 319 320 322 320 321 323 319 314 315 322 323 319 316 315 315 312 309 309 311 311 311 312 312 311 311 312 311 311 311 310 310 310 310 310 310 310 310 309 310 312 313 315 316 315 318 320 319 321 323 323 321 322 324 324 323 322 321 322 322 321 320 320 319 319 318 317 316 316 316 316 317 317 316 316 316 316 315 313 310 307 304 303 303 302 301 300 299 299 298 298 297 297 297 296 296
319 319 318 321 322 320 324 324 319 316 317 319 322 319 316 316 317 315 312 311 312 312 312 312 312 311 311 312 312 312 311 310 310 310 309 309 310 310 310 308 311 315 313 316 319 315 317 321 319 319 322 323 322 322 323 323 322 321 321 321 320 319 319 318 317 316 315 315 314 314 316 316 316 315 313 312 311 309 307 305 303 302 301 300 299 299 299 299 298 298 298 297 297 297 296 296 295
321 321 319 320 321 320 323 323 320 323 323 319 318 319 319 320 318 318 316 313 312 311 312 312 311 311 311 311 312 312 312 311 311 310 309 310 310 310 310 308 311 316 314 315 319 317 316 320 320 320 320 320 320 321 322 322 321 321 320 319 318 318 317 316 315 314 313 313 313 313 313 311 310 309 306 305 304 302 301 301 300 300 299 298 298 298 298 298 298 297 297 296 296 296 296 295 295
322 322 321 320 321 321 322 322 322 326 331 323 318 323 328 326 320 319 319 316 315 312 310 311 311 310 310 310 311 311 311 311 311 311 311 310 309 310 310 309 310 314 313 313 317 318 318 318 319 319 319 318 318 318 319 320 319 319 318 317 317 316 315 314 313 312 312 311 310 308 306 304 303 302 301 300 300 299 299 299 298 298 298 298 298 297 297 297 297 296 296 295 295 295 295 295 294
322 326 324 320 320 322 322 323 322 326 330 322 318 325 328 323 322 324 323 321 321 317 310 309 311 310 310 310 311 311 311 310 310 311 310 310 309 310 310 310 310 312 313 313 314 317 319 319 318 318 318 318 319 318 318 318 317 317 316 315 314 314 312 311 310 309 308 307 305 303 302 300 299 299 299 298 298 298 298 298 298 298 298 297 297 297 297 296 296 295 295 295 295 294 294 294 294
325 326 325 323 321 322 323 322 323 325 326 321 320 324 325 322 322 325 327 326 326 322 316 311 309 310 311 310 310 311 311 311 311 310 310 309 309 309 310 311 311 312 314 313 315 317 318 318 318 318 318 318 318 318 317 317 316 316 315 314 313 312 309 307 306 305 304 303 302 300 299 298 298 298 298 298 298 298 298 298 297 297 297 297 296 296 296 295 295 295 294 294 294 293 293 293 293
325 322 323 325 323 324 325 322 322 323 323 322 322 322 324 324 322 322 324 324 324 322 320 316 310 309 310 310 310 310 310 311 311 311 310 309 309 309 309 311 312 312 314 314 314 317 318 317 316 316 316 316 316 315 314 314 314 313 313 312 311 309 306 305 304 303 302 301 300 298 298 297 297 297 297 297 298 297 297 297 297 297 297 296 296 296 295 295 294 294 294 293 293 293 293 292 292
319 318 322 325 324 326 327 326 324 325 325 324 323 322 324 326 324 323 321 322 323 321 320 317 311 310 310 309 309 309 310 310 310 310 310 309 309 309 309 311 312 312 315 315 313 315 317 316 315 314 314 314 313 312 312 312 312 311 310 309 307 305 304 304 302 301 300 299 298 298 297 298 298 298 298 297 297 297 297 297 296 296 296 296 295 295 294 294 294 293 293 293 293 293 292 292 292
315 322 328 329 329 328 330 329 325 326 326 325 325 324 324 326 326 324 322 322 324 321 320 319 312 310 310 309 309 309 309 310 310 309 309 308 308 309 310 311 311 311 314 315 312 313 315 316 315 313 313 313 311 311 311 310 309 308 307 306 305 304 304 302 301 300 299 298 298 298 298 298 298 298 298 297 297 297 296 296 296 295 295 295 294 294 294 293 293 293 293 292 292 292 292 292 291
318 331 331 329 330 329 330 328 324 325 327 325 325 323 323 325 325 324 322 321 320 319 321 322 315 310 310 309 309 309 310 310 310 309 309 308 307 309 311 312 311 310 312 312 312 314 316 316 314 312 312 312 310 310 310 308 306 306 305 304 304 303 303 302 302 301 300 299 299 299 299 298 298 297 297 297 297 296 296 295 295 295 295 294 294 293 293 293 293 292 292 292 292 291 291 291 290
322 330 328 326 327 326 328 327 324 325 324 321 320 320 321 323 323 322 321 320 319 316 315 317 314 310 311 311 309 309 309 309 309 309 309 308 307 309 310 311 311 310 309 310 312 314 315 315 312 310 311 310 310 309 307 305 305 305 304 304 303 302 302 302 301 301 301 300 299 299 299 298 298 297 297 296 296 296 295 295 295 294 294 294 293 293 293 293 292 292 292 291 291 291 290 290 290
321 324 325 326 325 325 327 325 323 324 324 320 317 318 321 322 323 322 321 318 316 312 311 312 313 312 312 311 310 309 308 309 309 309 309 308 308 308 309 310 310 309 309 311 313 313 313 313 310 310 311 310 309 307 305 304 304 304 303 302 301 301 301 301 300 301 300 299 299 299 298 298 298 297 297 296 296 295 295 295 294 294 294 294 293 293 293 292 292 292 291 291 290 290 290 289 289
319 322 324 325 326 329 329 326 325 326 325 319 315 319 325 326 326 321 314 311 309 309 310 311 312 312 312 311 310 308 308 308 308 308 308 309 308 308 309 309 310 310 309 311 312 312 312 311 310 311 311 308 307 305 304 304 303 303 302 301 300 300 300 300 300 300 300 299 298 298 298 298 297 297 296 296 296 295 295 295 294 294 294 293 293 293 292 292 292 291 291 290 290 290 289 289 288
319 321 323 324 325 328 327 325 324 323 323 320 317 321 325 324 322 316 310 309 309 308 308 309 311 311 310 309 309 308 308 307 307 308 308 308 308 308 309 309 310 311 310 310 311 312 311 311 311 311 309 306 305 304 304 303 303 302 301 300 299 299 299 300 299 299 299 298 298 298 298 297 297 296 296 295 295 295 295 295 294 294 294 293 293 293 292 292 291 291 290 290 289 289 289 288 288
320 319 322 321 321 323 325 323 320 319 322 322 319 321 322 320 320 317 314 314 313 310 308 307 308 308 308 308 308 308 308 307 307 307 307 308 308 307 308 309 309 311 310 310 311 312 311 311 311 310 307 305 304 303 303 303 302 301 300 299 299 299 299 299 299 299 298 298 298 297 297 297 296 296 295 295 295 295 295 295 294 294 293 293 293 293 292 291 291 290 290 289 289 289 288 288 288
321 322 321 319 320 324 327 326 322 321 324 323 321 322 322 322 322 321 317 316 317 317 313 307 304 305 305 306 307 307 307 307 307 307 307 307 307 307 308 309 309 310 311 310 311 311 311 311 310 308 305 304 303 303 303 302 302 301 300 299 299 299 299 298 298 298 298 298 298 297 297 296 296 296 295 296 295 295 295 294 294 294 293 293 293 292 291 291 290 290 289 289 289 289 288 288 288
318 321 319 320 325 326 324 325 325 324 325 325 323 321 320 321 322 322 319 320 323 320 316 312 307 303 303 305 306 306 306 306 306 306 307 307 307 307 307 308 309 310 311 311 311 311 311 311 310 308 305 304 303 303 302 302 301 300 299 299 299 298 298 298 297 297 298 298 297 297 297 296 296 296 295 296 295 295 295 294 294 293 293 293 292 292 291 290 290 290 289 289 289 288 288 288 288
313 316 316 319 324 323 322 324 325 326 327 327 325 323 323 322 322 323 321 322 324 320 318 316 309 303 303 305 305 305 305 306 306 307 307 307 307 307 307 307 309 310 310 311 311 311 311 311 310 308 305 304 303 302 302 301 301 300 299 299 298 298 298 297 297 297 297 297 297 296 296 296 296 296 295 295 295 295 294 294 293 293 293 292 292 292 291 290 290 289 289 289 289 288 288 288 288
315 318 319 318 318 319 321 322 322 325 327 327 327 325 325 324 321 321 321 320 320 319 318 315 308 304 305 305 305 306 306 306 307 307 307 307 307 307 306 307 309 310 311 311 311 311 311 311 310 307 305 304 303 302 302 301 301 300 299 299 298 298 297 296 296 296 296 296 296 296 296 296 296 295 295 295 295 294 294 293 293 293 293 292 292 292 291 290 290 289 289 289 288 288 288 288 288
317 318 319 318 318 319 322 322 320 321 323 326 326 324 324 326 321 319 322 321 316 312 312 311 308 306 306 305 306 307 307 307 308 307 307 307 307 306 306 307 308 311 311 311 311 311 311 310 308 306 304 303 302 302 302 301 301 300 299 299 298 297 297 296 295 295 295 295 295 295 295 295 295 295 295 294 294 294 294 293 293 293 292 292 292 292 291 290 290 289 289 289 288 288 288 288 288
Wind_Speed
1 3 2 4 4 4 2 3 2 3 4 3 2 2 1 2 2 2 2 2 2 3 9 14 13 13 12 13 15 14 9 2 2 3 4 4 5 6 5 4 4 7 7 11 15 11 10 9 8 8 7 7 7 7 7 7 8 7 7 8 9 9 8 10 12 13 13 14 14 13 13 12 11 10 11 11 10 11 11 11 11 11 11 11 11 11 10 11 12 12 13 12 10 8 6 4 3
1 2 3 5 3 3 2 3 2 3 5 3 2 2 0 3 3 3 2 2 3 5 14 21 22 21 19 18 15 14 12 8 7 8 8 7 7 6 3 4 5 9 8 10 15 13 10 9 8 8 7 7 6 7 6 6 6 6 6 6 8 8 8 10 11 12 12 14 14 13 12 12 11 9 10 10 10 9 9 10 10 10 10 11 11 11 11 12 13 14 15 14 13 11 8 4 2
2 3 4 4 2 3 3 4 3 2 5 3 2 2 0 3 3 5 4 3 4 7 13 15 14 11 11 11 9 8 5 6 11 9 8 9 9 7 3 5 8 10 8 10 16 15 11 9 8 8 8 7 6 6 6 5 5 5 5 5 6 7 8 9 11 12 12 13 14 13 12 11 10 9 8 9 8 7 8 8 8 9 10 11 11 12 12 12 13 14 15 15 15 13 10 8 4
2 3 3 3 2 3 3 4 3 4 4 3 1 4 2 5 6 7 3 5 5 7 9 8 7 7 11 11 6 7 5 3 5 5 6 8 10 8 5 7 11 11 8 9 16 16 12 10 8 8 8 7 7 6 6 5 4 4 4 5 5 6 7 9 12 13 13 14 14 13 12 11 10 9 7 7 6 6 7 7 7 8 9 10 10 10 11 12 13 14 15 15 15 14 13 11 8
1 3 3 1 1 2 3 3 2 5 3 4 2 4 5 6 7 6 3 7 7 9 11 9 5 7 14 9 3 4 3 3 2 3 7 10 10 10 8 9 12 12 9 8 14 17 14 11 8 8 8 7 7 6 5 5 4 4 4 5 4 6 7 9 12 13 13 14 13 12 12 11 11 9 7 6 5 6 5 5 6 6 7 7 8 9 11 12 13 14 15 15 15 15 14 13 11
1 2 3 4 4 3 3 3 3 3 3 5 4 4 6 7 8 6 6 8 9 9 10 9 7 9 11 10 8 6 3 3 2 4 9 10 10 9 8 10 12 12 10 8 12 17 14 11 9 8 8 8 8 6 5 5 5 4 4 4 4 5 7 9 12 13 13 13 11 11 11 11 10 8 7 6 5 5 4 4 5 5 5 6 8 10 11 13 15 16 16 16 16 16 15 14 13
2 2 3 5 5 4 4 4 4 2 2 6 6 6 7 9 11 10 6 7 8 8 9 11 13 12 8 6 8 8 6 4 4 7 10 10 9 9 7 9 12 12 11 9 11 16 14 11 10 9 9 8 8 7 5 6 5 4 4 4 5 5 6 9 11 11 11 11 10 9 10 10 10 8 7 6 5 5 4 4 4 4 6 7 10 12 13 15 17 18 18 18 18 18 16 15 15
3 2 4 4 3 4 4 3 3 3 2 4 5 7 10 12 14 11 5 4 5 5 9 11 11 8 2 3 4 7 8 6 7 9 9 9 9 9 9 9 11 13 12 10 12 15 13 11 11 11 10 8 8 7 6 5 4 4 4 4 5 5 5 8 10 11 10 9 8 8 8 8 8 7 7 6 5 4 4 3 4 4 7 8 11 13 14 16 17 19 19 19 18 18 17 15 15
4 3 5 4 3 4 3 3 1 2 1 2 3 7 12 14 12 9 5 3 6 7 6 8 6 4 4 5 7 7 8 9 9 9 9 8 8 9 10 9 9 12 12 10 11 12 11 10 11 12 11 9 8 7 6 5 4 4 4 5 5 5 5 6 9 10 9 8 7 7 6 6 7 6 5 5 5 4 3 2 3 5 6 7 9 12 13 15 17 18 19 17 16 17 17 15 14
4 4 3 3 3 4 3 1 0 1 2 3 4 7 9 10 10 8 8 5 7 9 7 7 6 7 9 8 7 7 8 9 8 9 9 8 8 9 11 10 10 10 11 11 10 9 10 9 10 12 13 11 9 8 7 6 5 4 4 5 5 5 6 6 8 9 9 8 7 7 6 6 6 6 5 4 4 3 2 2 3 4 5 6 7 10 12 14 16 18 18 16 14 14 15 14 13
3 4 3 4 4 3 3 2 2 2 3 3 1 4 4 7 9 7 8 7 6 10 9 6 7 12 11 6 7 8 7 7 7 9 9 9 8 9 11 12 12 11 10 11 10 9 10 9 9 11 13 12 10 9 8 7 6 4 3 5 5 5 6 6 7 8 9 8 7 7 6 6 5 5 4 4 3 2 2 2 4 4 4 5 6 9 11 14 16 17 17 15 13 13 13 12 11
2 2 3 4 3 3 4 5 4 2 3 2 1 3 5 7 9 5 7 7 6 11 9 4 8 13 7 3 9 9 6 4 6 9 10 11 10 9 11 12 13 12 12 12 12 12 12 12 11 12 13 14 12 10 9 8 6 5 4 4 5 6 6 7 7 8 9 9 8 7 7 6 5 4 4 3 2 2 2 2 3 3 4 5 7 9 11 13 15 16 16 15 14 13 12 11 10
3 1 5 3 2 4 5 5 4 1 2 2 3 2 5 6 7 7 9 8 5 8 7 5 11 11 4 4 10 9 5 3 6 9 10 13 13 12 12 13 13 13 14 15 14 14 14 14 13 13 15 15 13 11 10 9 8 6 5 5 5 6 6 6 7 7 8 8 8 7 7 6 5 4 4 3 1 1 2 2 2 3 4 5 7 9 11 12 14 15 15 14 13 13 13 12 10
3 3 5 3 2 4 5 3 2 3 2 5 3 2 5 5 8 12 12 8 4 5 6 6 13 10 4 6 9 11 7 5 7 9 12 14 15 15 14 14 14 15 15 16 15 13 12 12 12 14 16 16 14 13 12 11 9 8 7 6 5 5 5 6 6 6 7 8 8 7 7 6 5 5 4 3 2 1 1 1 1 2 3 4 6 8 10 11 13 14 14 14 14 14 15 14 12
4 2 4 4 3 2 4 2 3 5 4 4 3 4 8 8 10 12 12 8 3 6 6 7 11 6 5 8 8 14 10 7 8 10 13 14 15 16 17 17 16 16 17 17 15 12 10 10 13 14 16 17 16 14 13 13 11 10 8 7 6 5 5 5 6 6 6 7 7 7 7 7 6 6 5 4 3 1 1 1 0 1 2 3 4 6 9 10 12 14 15 16 15 15 15 14 13
4 3 4 4 2 2 3 2 4 4 4 5 5 6 8 7 8 8 7 7 6 8 5 5 6 3 8 11 9 15 11 8 10 10 13 13 15 16 17 19 17 17 17 17 15 14 12 11 14 15 16 17 17 16 15 14 12 12 10 8 7 7 6 5 5 5 6 6 7 7 7 7 7 7 6 4 4 2 2 2 1 1 1 2 3 5 8 10 11 13 15 16 16 16 15 15 13
3 3 5 3 2 3 3 3 4 4 5 5 6 8 5 3 5 6 5 7 8 7 5 5 6 6 10 10 11 15 10 9 12 11 13 13 14 16 17 19 18 18 17 17 16 15 14 12 13 16 19 20 19 18 18 16 15 14 12 10 9 9 7 6 5 5 6 6 7 7 7 7 7 7 7 6 5 4 4 3 3 2 2 2 2 5 8 8 9 12 13 14 15 16 16 15 14
3 3 4 2 2 2 3 6 6 5 5 6 8 8 6 4 5 7 5 5 8 7 6 7 7 9 9 9 12 13 10 10 12 12 13 13 14 15 16 18 18 19 18 18 17 16 15 14 14 15 19 21 20 19 20 18 17 16 14 13 12 10 8 6 6 6 7 7 7 7 7 8 8 8 8 7 6 5 5 4 4 4 4 2 2 4 6 6 8 11 11 12 13 15 15 14 13
4 3 4 2 5 2 1 6 6 3 7 10 9 7 7 7 8 8 4 5 9 7 6 7 7 9 9 10 11 10 9 10 13 13 14 13 14 15 16 17 17 18 18 18 18 18 17 16 15 15 17 19 20 20 20 19 18 17 16 15 14 12 10 9 8 8 8 8 8 9 9 9 9 10 9 8 7 6 5 4 4 4 4 4 3 4 4 3 7 9 9 10 12 14 13 12 12
2 4 4 3 6 2 2 5 5 6 11 12 8 6 8 10 8 7 6 7 7 6 8 8 9 12 12 11 11 9 9 10 13 14 15 15 14 13 13 14 15 15 16 16 17 17 17 17 17 17 17 17 19 20 19 18 18 17 16 15 14 13 11 10 10 9 10 10 9 10 10 10 11 10 10 9 8 6 6 5 5 5 5 5 2 3 3 3 6 8 8 9 11 12 11 11 11
2 3 3 5 6 3 3 6 6 8 12 11 9 7 6 9 9 7 9 7 4 10 14 12 12 15 14 12 11 10 10 11 14 15 16 16 14 13 11 10 10 10 12 12 13 14 16 16 17 18 18 17 17 18 19 16 14 15 15 14 13 12 11 11 12 12 13 12 10 10 10 10 10 10 10 10 8 7 6 6 6 5 4 3 2 2 3 3 5 7 7 8 9 10 9 9 9
3 1 1 5 7 3 4 7 8 10 9 8 8 6 6 9 8 9 11 7 5 10 16 16 13 14 13 12 11 10 11 12 14 16 17 16 15 13 11 9 8 7 8 8 10 11 13 15 16 17 18 18 16 16 18 16 15 16 15 14 13 13 13 14 15 15 15 13 11 11 10 10 9 9 10 10 11 10 7 6 6 5 3 2 3 2 3 3 4 6 6 7 7 7 7 6 6
2 1 1 3 5 4 7 9 8 8 7 8 7 5 7 9 6 8 12 9 8 8 12 15 13 12 12 11 11 10 11 13 14 16 16 15 14 13 11 9 8 7 7 7 8 10 11 13 15 17 18 19 18 16 17 18 18 17 15 14 14 15 15 16 16 16 15 14 13 12 11 10 10 9 9 10 11 10 6 5 5 4 3 3 4 1 1 2 4 5 5 5 4 4 4 3 3
4 1 1 2 3 5 9 8 6 6 6 7 5 5 8 9 5 6 10 11 9 8 9 13 13 13 12 11 11 11 12 14 15 15 15 14 13 12 11 9 9 9 8 8 9 10 11 12 13 15 17 19 20 19 18 19 18 16 16 15 14 16 16 15 14 15 15 14 13 12 11 11 10 9 9 8 9 9 7 6 5 5 4 5 6 5 3 1 4 5 5 3 2 1 1 2 3
4 2 1 1 2 6 8 7 7 7 6 6 6 6 7 7 5 5 9 11 10 11 12 13 14 13 12 13 13 14 15 16 16 15 14 13 12 12 11 11 11 10 9 9 11 11 12 13 12 13 18 21 22 22 21 20 19 18 18 17 16 17 18 16 15 15 15 13 13 13 11 11 11 9 9 8 8 9 10 9 8 8 8 8 8 7 5 2 3 2 3 3 3 3 2 1 4
2 3 1 0 1 4 7 9 10 9 8 8 6 6 7 6 5 6 10 12 12 14 15 15 14 14 14 14 15 16 17 17 16 14 13 12 12 12 12 12 11 11 10 10 11 12 13 14 12 13 19 23 24 24 23 22 20 19 18 19 18 17 16 16 16 16 14 12 13 13 12 11 10 9 9 8 7 8 9 8 10 12 12 10 9 7 5 4 4 3 3 5 6 5 3 3 6
3 3 1 2 4 5 7 10 12 10 9 10 8 6 7 5 3 5 9 13 16 17 16 15 15 15 15 15 15 16 16 16 15 13 12 12 12 12 12 11 11 10 10 9 10 12 12 13 11 13 19 24 26 25 24 23 20 20 19 19 20 18 16 14 15 16 15 13 13 13 11 10 10 10 9 8 8 8 8 7 7 10 11 10 9 7 7 7 7 5 5 6 5 4 3 5 7
2 1 3 5 6 8 9 11 14 11 6 10 10 4 5 2 3 8 10 15 18 18 17 16 15 15 15 15 15 15 15 15 14 12 12 12 12 12 11 11 10 10 9 8 9 11 11 12 11 14 20 25 25 24 23 21 19 19 19 18 18 18 16 15 16 15 13 14 14 11 9 9 10 10 9 9 9 9 9 7 7 8 8 6 6 8 10 10 8 5 5 4 2 2 4 6 8
1 2 3 6 8 7 9 10 13 11 4 6 7 2 5 4 7 9 10 16 18 18 18 17 17 16 16 16 16 16 15 14 13 12 12 12 12 11 10 10 10 10 8 7 9 10 11 11 12 16 21 24 25 23 21 19 18 17 17 17 16 16 17 18 17 15 15 16 13 10 9 9 9 9 8 8 7 6 7 6 7 9 8 6 8 10 11 9 6 4 3 1 1 3 5 7 9
1 2 1 3 7 6 6 4 8 10 4 6 9 2 6 7 10 8 11 18 20 19 19 19 19 18 17 17 17 16 15 15 14 13 13 12 12 11 10 10 10 10 8 7 9 11 11 12 14 18 21 23 23 22 20 19 16 16 17 17 17 17 17 17 17 18 19 16 11 10 9 9 8 7 7 6 5 5 6 6 8 11 8 5 7 9 8 5 3 2 1 1 2 4 6 8 8
1 1 2 2 2 4 6 1 9 8 4 10 11 1 7 8 9 9 14 20 21 22 22 21 21 20 19 19 18 17 16 15 14 14 14 13 12 11 11 11 10 10 9 8 9 11 12 13 13 16 18 20 22 21 21 20 16 17 18 18 21 22 19 18 18 17 16 11 8 9 9 9 9 7 6 6 6 6 6 6 7 9 8 7 7 6 4 3 2 1 2 3 5 6 7 7 6
2 1 3 3 2 5 9 2 12 8 3 10 9 1 8 10 9 11 18 21 22 23 23 24 23 22 21 20 19 18 17 17 16 15 15 14 12 11 11 11 10 10 10 9 10 11 12 15 15 14 15 16 19 20 21 19 17 18 19 18 19 19 17 17 18 14 10 6 6 8 9 9 8 6 6 5 6 7 7 7 6 6 7 7 6 3 1 2 3 4 3 5 6 6 5 3 1
3 1 3 3 3 3 7 2 8 8 5 7 6 3 4 6 5 12 20 23 23 22 23 25 25 25 24 22 21 20 19 19 18 17 16 14 13 12 12 11 10 10 11 10 10 11 12 15 18 18 16 16 17 19 19 18 19 18 18 20 18 16 14 14 14 10 7 7 7 8 8 7 7 7 6 6 8 8 8 7 6 6 7 6 4 2 3 5 6 5 4 4 4 3 2 4 5
3 0 2 4 4 2 3 4 3 7 7 5 6 4 7 6 2 13 21 23 24 23 25 27 27 27 26 24 22 22 22 21 20 18 17 15 14 13 13 11 10 10 11 10 10 11 12 13 16 18 16 16 18 20 18 18 20 18 18 20 18 18 18 14 12 11 9 9 9 7 6 6 6 5 5 7 9 9 7 6 6 7 6 5 4 4 4 4 4 4 3 3 5 6 7 7 8
3 3 2 4 3 3 4 4 2 7 4 5 6 6 12 11 6 13 21 23 25 26 26 27 28 28 27 26 25 24 23 22 20 18 16 16 14 13 12 10 10 10 11 12 12 12 13 13 14 16 15 14 17 19 18 18 19 17 17 17 15 15 15 13 12 12 11 10 8 6 5 5 6 7 8 8 8 9 9 7 7 7 6 5 5 4 3 2 1 2 5 8 9 9 10 10 9
6 6 4 3 4 4 5 5 5 8 4 5 8 9 12 13 11 13 21 25 26 26 24 23 26 28 27 27 27 26 25 23 20 17 15 15 13 12 12 11 10 11 12 13 14 13 14 16 16 16 16 16 17 18 16 17 19 17 15 15 15 13 12 12 13 13 11 9 7 6 7 6 6 8 10 9 8 9 8 8 8 8 6 5 4 4 2 3 5 7 9 11 10 10 11 11 9
5 4 3 4 4 5 4 5 6 6 5 6 9 10 11 13 11 12 18 21 22 23 22 23 26 28 30 31 30 29 27 24 21 17 15 14 14 13 12 12 12 13 13 13 15 15 15 17 18 18 17 17 19 18 17 19 20 18 15 14 16 15 13 14 14 12 10 9 9 8 7 6 7 8 10 10 9 8 7 7 6 6 5 4 4 4 6 8 10 9 9 10 9 9 10 10 9
2 2 3 4 4 6 6 5 5 3 4 6 7 8 11 12 11 12 12 13 18 26 26 27 29 30 32 33 32 31 27 24 22 19 17 16 16 15 14 14 14 14 15 14 15 16 16 16 17 19 19 19 19 17 18 19 19 16 13 14 17 16 16 15 13 12 11 10 10 9 7 7 8 9 10 9 9 8 7 7 6 6 7 6 7 9 10 10 10 10 8 8 8 8 9 10 7
4 2 2 4 4 4 7 5 4 1 4 5 6 7 10 11 10 11 12 14 22 33 34 34 34 33 35 35 34 32 29 27 26 23 20 18 18 17 15 15 14 15 16 16 16 16 18 18 17 17 20 21 19 17 18 19 18 15 14 16 17 16 15 14 13 13 12 11 11 10 10 9 9 9 9 8 8 9 9 9 10 11 11 10 9 9 9 8 8 8 7 7 8 7 9 9 7
4 4 2 5 4 2 5 5 3 1 2 3 5 8 7 7 7 8 17 23 24 28 31 34 35 34 37 38 37 36 35 33 30 26 22 20 20 19 18 17 16 18 18 19 19 16 18 20 19 18 19 20 18 17 20 20 19 19 17 17 16 15 15 14 13 13 13 12 13 13 12 11 11 10 10 11 11 12 12 12 13 12 11 10 8 7 7 7 7 7 7 8 7 6 6 7 7
5 6 6 6 6 7 6 4 4 4 4 2 4 8 7 6 9 10 13 16 17 20 22 27 33 34 33 33 36 38 37 36 33 29 25 23 23 21 20 18 19 22 20 20 21 18 19 19 20 21 19 17 17 17 19 20 20 20 18 18 17 16 16 15 15 15 14 14 15 15 14 14 14 14 15 15 15 15 14 13 11 10 10 9 7 6 6 7 7 7 7 8 7 7 7 7 6
5 5 9 10 9 8 6 2 4 4 5 4 1 5 7 4 8 11 8 4 9 15 17 23 30 30 30 32 36 38 36 35 32 28 25 24 24 23 21 20 22 23 21 21 21 20 20 20 20 20 18 18 19 19 19 18 18 17 17 18 19 19 17 16 15 17 18 18 19 19 19 19 18 18 18 16 15 14 13 12 10 9 8 8 6 6 7 7 7 7 8 8 8 9 9 8 7
4 6 10 11 8 6 5 1 1 2 4 4 2 2 7 5 5 9 6 3 9 12 12 19 25 28 33 36 37 38 38 36 32 27 26 25 25 25 24 23 24 24 22 22 22 22 22 22 22 20 19 21 22 22 21 20 19 18 18 17 17 17 18 19 20 21 22 23 24 23 23 22 19 18 17 16 14 12 11 10 9 7 7 6 7 7 7 7 8 8 8 9 9 10 9 9 9
4 5 6 8 7 6 5 4 3 4 3 4 1 3 6 9 6 6 7 6 10 12 10 15 21 28 34 36 37 39 40 37 34 30 28 27 27 27 25 24 25 25 24 24 23 24 24 22 21 20 20 21 22 21 21 20 20 20 19 18 16 17 22 25 25 25 25 25 25 24 23 21 19 17 16 14 13 11 9 8 7 6 6 6 7 6 7 8 8 9 9 9 10 10 10 11 11
6 3 6 6 6 5 4 4 4 1 3 4 2 4 3 10 5 1 3 7 11 14 13 14 19 26 31 33 35 37 38 37 34 32 29 28 28 27 26 26 26 25 25 25 25 25 25 23 22 21 21 21 21 22 22 20 19 18 19 19 20 24 26 27 28 27 26 25 24 23 21 20 18 16 14 12 10 9 8 7 6 6 6 7 7 7 8 9 9 9 10 10 11 11 12 12 12
4 6 6 5 5 4 5 4 3 2 3 5 6 5 4 8 3 3 1 5 10 12 12 11 15 24 30 31 31 33 35 35 33 32 29 27 27 27 27 27 27 26 26 26 26 26 25 25 25 23 23 23 23 23 21 19 17 17 19 23 26 29 29 28 28 27 26 24 22 22 20 18 16 14 12 11 9 8 7 6 6 5 6 7 7 8 9 9 9 10 11 11 12 12 13 13 13
7 7 6 6 6 5 4 2 4 1 6 6 9 9 5 6 4 4 4 5 7 8 8 8 8 18 27 29 31 33 35 36 34 32 29 26 27 28 28 29 29 28 28 28 27 28 27 26 25 24 24 24 23 22 20 19 19 20 23 26 27 27 27 27 27 26 25 23 21 20 19 16 14 12 11 10 8 7 6 6 5 5 6 7 7 8 9 9 10 11 12 12 12 13 13 13 13
7 5 4 4 4 4 4 4 3 1 7 5 9 10 9 8 6 3 5 6 5 6 6 7 6 14 23 27 31 33 35 36 35 33 30 29 29 31 32 31 30 30 31 31 29 29 29 28 25 25 25 24 22 22 22 22 23 23 25 26 25 24 24 24 23 23 22 21 19 18 17 15 13 12 10 9 8 7 6 5 5 5 6 7 7 8 9 9 10 11 12 12 12 12 12 12 12
5 5 6 3 2 3 3 3 0 4 7 3 5 6 6 9 8 7 10 12 10 8 9 10 10 13 20 27 31 33 35 37 36 35 33 32 33 34 35 34 33 33 33 33 32 30 29 28 26 25 25 24 23 24 25 25 25 25 26 26 25 24 23 22 21 20 19 19 17 15 14 13 12 11 10 8 7 7 6 5 5 5 6 6 7 8 8 9 10 10 10 11 11 11 11 11 10
5 6 6 5 2 1 3 3 2 4 5 4 2 3 3 5 6 10 15 16 14 10 13 16 16 16 18 23 30 33 35 37 37 36 35 34 34 34 36 36 35 36 34 34 34 32 30 29 28 26 25 24 25 26 27 27 26 26 26 26 25 23 22 21 20 18 18 18 16 14 13 12 11 10 9 8 7 6 5 4 5 5 5 6 6 7 8 9 9 9 9 9 9 9 9 9 8
6 5 6 6 5 4 4 4 4 4 4 4 1 2 3 3 3 7 9 10 11 10 13 15 17 18 16 20 28 33 36 37 37 37 36 35 33 33 36 37 37 37 36 35 35 33 32 30 29 27 26 26 27 28 29 29 28 28 27 26 25 23 22 21 19 18 17 17 16 15 14 12 11 10 9 8 7 6 5 4 4 4 4 5 6 7 7 7 7 7 8 8 8 7 7 7 7
3 3 5 3 5 6 3 3 5 3 2 4 2 4 5 4 6 8 6 8 8 8 10 10 12 14 15 21 28 33 37 38 38 38 37 35 32 33 37 37 37 38 36 36 37 36 34 32 31 29 28 29 30 30 30 30 30 29 29 28 26 24 23 22 21 19 18 17 16 15 14 14 12 11 10 8 7 5 4 3 3 3 3 4 5 5 6 6 6 6 6 6 7 6 6 6 6
1 2 5 3 3 6 3 2 1 2 3 4 4 5 5 3 8 8 4 7 9 8 7 7 9 11 16 24 29 34 38 40 40 40 38 36 34 35 37 37 38 39 38 37 37 37 35 34 32 30 30 31 32 32 31 31 31 31 30 29 27 26 24 22 21 21 20 19 18 16 16 15 13 12 10 8 6 5 4 3 2 2 2 3 3 4 4 4 4 5 5 6 6 5 6 6 5
5 4 6 2 3 2 2 2 1 1 5 5 4 8 5 1 5 5 4 4 10 9 7 6 8 13 19 24 29 33 36 38 40 39 37 36 36 36 37 38 38 39 38 37 37 37 35 34 33 33 34 35 34 33 33 32 32 32 31 30 28 26 25 23 22 21 21 20 20 19 17 16 14 13 11 9 7 6 5 4 3 2 2 2 2 2 3 3 4 5 5 5 6 5 6 6 6
4 4 6 4 1 2 2 2 3 2 4 5 3 5 5 5 5 3 2 7 10 10 7 6 9 15 20 23 27 30 33 36 38 38 38 38 38 37 38 39 39 39 38 38 37 37 36 35 33 33 35 35 34 34 33 33 32 32 31 30 29 27 25 25 24 22 22 21 20 20 18 17 16 14 12 10 9 7 6 5 4 3 2 2 1 1 2 3 4 5 5 6 6 6 6 6 6
3 2 3 3 2 3 3 3 3 3 3 4 3 3 4 6 6 6 9 11 10 10 8 8 13 19 23 25 27 31 33 37 38 39 39 39 39 38 38 39 39 39 39 39 39 39 37 36 35 35 35 35 34 34 34 33 33 32 31 30 29 28 27 26 25 24 23 22 21 20 19 18 17 15 14 12 10 9 7 6 5 4 3 2 1 1 3 4 4 5 6 6 6 6 7 7 7
3 4 5 3 1 2 1 2 2 3 4 3 4 5 5 5 4 7 10 10 9 10 9 10 14 20 24 26 29 32 34 37 38 38 39 39 38 38 37 38 39 39 40 40 40 40 38 37 36 36 37 36 35 35 34 34 33 32 32 31 30 29 28 27 26 25 24 23 22 21 20 19 18 17 15 13 12 10 8 7 6 6 5 3 3 3 4 5 5 5 6 6 7 7 7 8 8
6 7 8 8 6 4 2 4 2 3 3 4 2 6 7 4 3 5 7 7 7 8 8 10 13 18 24 26 29 32 33 35 37 37 38 38 38 38 38 39 40 41 42 42 41 41 39 39 38 38 39 38 37 36 35 34 33 33 32 32 31 30 29 28 27 27 26 25 24 23 22 21 19 18 16 14 12 11 10 9 8 8 7 6 5 5 6 6 5 6 6 6 7 7 7 8 9
Wind_Direction
213 204 165 116 137 155 115 114 110 13 68 75 6 74 355 256 168 79 17 353 71 36 64 78 80 99 102 103 110 94 69 77 173 120 142 180 155 175 168 156 185 161 158 167 171 171 166 164 156 147 138 129 122 120 115 113 109 107 100 92 91 96 109 122 130 128 120 115 113 110 106 101 92 84 82 77 72 72 74 74 78 84 84 78 69 60 53 46 38 32 26 22 19 18 16 12 22
171 183 148 136 128 155 141 76 95 3 53 63 337 112 228 332 51 121 184 134 121 97 93 95 90 93 98 100 96 79 57 54 94 112 124 136 151 166 154 160 164 151 157 168 175 174 170 168 162 159 148 139 130 124 116 113 109 103 99 92 92 98 112 123 135 134 121 117 113 110 108 104 100 96 91 85 78 74 77 78 79 79 75 70 62 52 43 37 30 24 21 20 20 22 27 24 4
137 158 158 163 97 99 114 63 98 79 71 96 289 274 10 65 125 201 204 117 115 114 111 106 87 79 91 85 61 66 72 75 96 106 117 134 147 157 167 158 143 144 154 168 177 177 173 171 169 166 158 150 141 133 121 115 110 103 102 96 94 102 115 125 136 137 122 117 112 108 107 106 105 102 99 94 88 79 81 83 80 74 68 65 58 47 35 28 21 18 19 21 25 29 34 38 36
125 138 139 169 112 81 76 56 122 112 113 146 207 277 261 146 175 220 187 90 92 115 124 108 72 67 87 89 74 79 92 90 97 106 130 145 148 160 170 148 143 144 143 159 176 177 177 178 174 167 165 160 152 146 130 119 115 114 114 110 106 110 120 126 136 139 126 119 114 110 107 107 108 106 110 106 96 85 82 81 78 70 64 61 52 38 27 21 16 14 18 21 27 33 38 40 41
130 119 94 116 91 66 79 66 97 99 160 173 139 258 244 183 190 215 146 90 84 105 120 109 82 87 87 86 93 87 88 92 79 118 142 150 152 164 160 141 142 142 131 140 171 178 181 181 177 172 171 170 162 160 146 130 122 122 118 115 116 122 127 129 137 140 130 122 116 113 109 108 108 110 118 112 100 90 81 74 70 60 57 55 44 32 25 21 16 14 17 20 26 33 39 42 42
168 134 73 71 73 78 88 73 86 84 200 164 141 222 223 193 177 169 125 94 87 97 119 122 122 109 86 72 73 84 109 107 107 147 147 149 154 160 154 141 138 135 128 128 168 179 182 185 184 179 176 178 172 167 158 140 131 128 115 109 114 128 138 138 142 143 133 124 119 116 113 110 109 113 120 115 108 97 85 74 66 53 48 44 38 32 25 21 18 16 16 18 22 28 36 40 41
155 164 60 72 65 52 89 106 128 122 198 166 158 181 204 193 157 143 122 103 87 81 103 123 128 111 88 83 74 76 98 122 140 153 148 148 152 154 155 150 140 133 130 125 159 176 182 190 192 190 184 185 182 177 168 149 139 132 116 109 115 128 147 150 149 148 139 129 123 118 113 112 113 116 122 119 116 102 90 82 70 49 36 36 36 29 22 20 18 17 16 16 17 21 27 33 36
120 115 65 83 45 34 92 104 146 165 154 173 172 171 183 174 151 139 135 127 108 95 108 130 135 105 91 164 112 91 103 121 135 149 147 146 150 153 164 162 145 136 138 131 145 169 184 197 198 197 190 189 192 187 177 162 150 135 119 116 122 128 149 160 158 157 149 138 130 123 115 112 113 116 121 119 116 104 91 84 68 45 31 31 28 21 19 19 18 18 17 16 16 18 22 26 30
95 78 62 82 70 45 66 53 88 175 175 168 168 173 171 164 157 143 134 124 113 101 109 161 162 111 150 139 124 120 113 115 124 144 146 151 152 152 169 171 155 146 148 144 146 167 184 199 202 200 195 193 196 195 187 175 163 146 131 124 130 135 143 162 167 166 159 149 140 133 124 119 121 122 122 122 120 99 82 89 67 45 31 25 17 15 18 19 20 19 18 19 19 20 22 24 27
81 68 83 80 80 68 65 46 79 165 223 202 168 160 158 164 169 146 130 123 111 90 90 151 149 129 146 128 127 134 119 119 126 147 151 157 156 156 173 173 170 166 158 159 165 178 189 195 200 202 199 197 196 196 194 187 178 162 144 136 139 144 144 159 171 174 167 158 150 144 140 136 134 131 131 132 126 99 84 87 55 40 34 26 14 14 18 21 22 20 20 23 26 26 28 30 32
65 41 93 82 77 111 154 176 209 226 259 282 170 128 104 145 148 128 125 121 110 98 98 124 126 132 133 126 150 145 125 126 137 157 159 162 168 166 176 179 181 183 169 168 180 193 204 200 198 203 201 199 198 197 199 198 192 180 163 148 146 150 152 160 173 178 174 166 160 158 156 153 145 135 132 127 112 94 82 56 41 34 32 24 12 15 20 24 23 20 21 27 32 32 34 38 41
67 357 75 91 108 159 178 157 176 231 307 323 174 93 73 117 121 120 132 122 112 100 95 116 149 145 122 132 162 147 125 134 156 166 166 167 179 177 179 188 189 189 181 179 189 198 211 208 199 200 199 200 200 201 204 203 203 196 184 164 154 159 160 164 172 177 178 174 170 168 167 165 154 138 139 128 92 78 74 55 53 37 24 11 8 15 20 23 21 18 21 30 36 35 36 40 46
102 149 82 94 138 141 137 141 181 141 337 249 205 108 87 102 114 144 135 115 113 96 83 113 160 159 120 162 167 159 149 174 176 165 168 169 179 187 188 194 195 196 193 193 199 202 211 211 202 198 196 199 201 201 206 208 209 202 193 184 167 165 167 170 174 178 184 182 178 177 176 176 165 151 151 146 100 76 70 65 69 37 24 11 10 16 21 23 20 19 23 32 38 38 38 38 41
101 149 99 112 91 116 134 130 181 137 230 251 233 148 99 94 126 150 139 107 66 96 99 123 163 169 143 161 174 183 188 203 185 164 170 171 179 189 194 198 199 201 201 204 208 208 209 205 200 200 197 196 200 202 205 209 212 206 204 203 183 173 176 175 178 183 187 187 187 188 187 187 181 173 170 175 173 136 97 95 74 43 33 13 13 19 22 22 23 28 32 36 41 41 42 41 39
87 118 94 103 52 91 153 148 162 149 213 239 210 149 108 110 132 145 144 128 88 125 131 130 162 185 176 175 184 190 194 200 183 168 172 174 182 188 194 199 203 205 206 208 211 211 203 193 195 196 195 198 200 205 209 211 212 212 213 216 204 196 192 184 184 189 193 195 197 200 201 200 196 193 190 195 196 185 194 179 333 26 26 3 12 20 20 21 28 39 41 41 45 44 43 43 41
71 91 77 81 67 134 164 153 133 133 227 221 186 157 119 125 139 132 134 146 146 153 170 155 161 187 176 180 183 183 187 188 178 173 177 180 185 188 193 197 203 208 211 212 213 213 207 203 200 187 189 203 204 205 211 211 212 213 214 215 207 202 200 195 191 192 200 205 210 214 215 214 212 210 208 209 209 207 211 224 261 276 324 338 8 19 18 20 34 48 47 45 46 44 41 38 37
60 76 65 68 110 153 169 170 164 164 217 222 190 176 145 148 152 130 125 152 152 148 161 149 153 159 170 183 180 181 184 180 180 180 183 184 187 189 193 195 200 206 212 216 216 217 214 213 208 190 191 202 205 207 210 208 208 209 210 210 203 199 199 204 205 200 203 210 219 223 225 229 230 228 225 223 225 228 228 234 242 255 282 299 358 12 13 21 44 54 50 46 43 39 37 34 32
63 98 84 98 153 162 182 184 191 166 169 192 188 183 168 166 165 146 128 137 142 135 132 132 149 160 172 180 174 184 188 181 189 192 192 192 192 193 195 196 198 203 208 215 218 220 219 217 214 203 201 203 203 208 210 209 210 211 211 211 210 211 214 220 218 208 204 210 219 220 223 227 232 234 233 232 236 241 242 242 239 248 262 277 330 0 9 31 59 62 53 44 39 36 34 34 35
66 101 92 166 199 197 208 177 186 170 161 169 167 176 184 181 173 161 155 154 147 132 125 137 158 167 175 178 174 189 193 188 196 201 205 203 201 199 199 199 199 202 207 211 216 220 222 220 218 214 211 208 206 210 211 211 214 216 216 215 218 222 226 228 222 216 215 215 216 218 219 220 226 229 230 233 238 246 248 239 236 248 268 285 320 1 14 56 72 69 58 41 39 41 39 42 44
46 83 89 229 208 160 63 134 169 184 162 154 146 161 180 178 178 179 167 168 175 176 170 170 183 186 185 182 180 186 192 196 198 205 212 212 211 209 205 203 202 204 208 212 215 219 223 224 222 220 217 212 209 210 208 211 215 217 219 216 217 222 224 224 222 218 216 219 221 220 219 220 223 227 231 234 238 244 240 234 244 265 279 285 320 24 47 69 68 70 55 39 44 45 45 52 53
25 90 143 204 179 134 114 122 130 157 157 155 151 149 169 176 187 196 160 149 227 222 206 208 212 205 197 190 186 184 189 196 200 204 210 214 219 220 220 220 217 213 212 216 218 221 224 226 227 224 221 215 208 206 204 203 206 213 216 213 213 215 212 212 217 218 216 220 226 224 222 221 224 229 232 229 232 234 231 242 251 256 267 280 310 29 93 83 60 65 46 32 47 48 48 56 58
60 46 177 171 160 158 171 144 131 149 157 161 156 155 181 181 193 204 180 176 238 232 223 225 224 213 207 200 194 188 187 194 201 204 209 216 222 226 231 233 233 227 222 221 220 224 225 224 226 225 223 216 205 203 201 190 194 207 210 208 211 210 206 207 213 219 219 220 223 224 223 225 228 230 230 233 234 221 216 240 244 235 235 259 298 349 82 89 56 49 36 29 43 46 44 50 56
91 306 12 148 175 178 172 165 155 163 169 173 175 190 185 176 200 213 205 220 242 245 230 220 214 204 203 203 201 198 193 195 199 202 208 214 221 225 227 227 230 232 234 235 230 233 233 226 223 221 220 213 202 203 202 194 202 209 203 203 208 205 205 207 213 219 223 222 220 222 225 225 228 231 236 241 232 212 213 237 231 229 221 236 268 305 69 70 40 26 23 25 31 39 35 23 27
101 176 286 122 185 181 174 180 189 195 201 203 198 195 186 183 201 213 216 230 236 232 215 205 200 196 202 209 215 218 210 204 201 202 205 208 215 221 226 231 236 241 243 248 250 247 246 239 227 217 213 207 200 202 204 202 207 205 198 201 203 206 206 204 213 220 222 222 217 218 224 223 223 227 229 229 224 216 222 220 208 224 223 226 230 192 182 311 1 4 4 357 348 3 7 336 344
83 154 235 117 182 187 185 203 218 222 229 225 215 210 208 204 214 231 227 226 216 207 200 196 197 203 214 222 228 229 223 214 207 206 206 210 218 224 233 239 242 250 251 253 258 256 252 246 235 215 204 200 198 203 207 205 204 200 198 197 197 206 207 201 209 214 216 221 221 218 218 220 222 220 217 220 230 219 208 209 218 226 217 212 208 180 177 265 316 321 322 304 294 291 290 325 344
126 141 179 300 226 199 202 216 220 228 233 223 222 239 238 227 243 262 241 222 206 198 197 200 205 213 220 226 229 226 222 216 210 210 213 217 225 232 238 242 247 252 254 254 254 253 250 245 234 210 198 196 196 200 207 207 203 200 198 197 196 200 206 207 212 217 215 208 210 218 219 219 223 223 225 228 230 217 209 225 236 226 211 197 190 190 207 240 249 242 265 280 284 288 305 349 348
153 129 215 262 256 252 234 226 228 231 233 225 215 236 248 234 228 248 231 209 201 198 198 205 212 217 220 224 224 219 215 213 212 213 217 224 229 234 239 244 250 253 254 252 250 248 243 238 227 204 195 195 195 197 203 205 203 203 202 200 198 200 209 211 206 210 213 206 207 220 224 222 226 230 233 232 224 223 227 233 237 226 206 186 183 210 244 239 230 232 249 263 275 292 330 345 345
137 37 308 292 297 285 249 229 232 224 231 232 214 236 274 219 208 239 222 203 202 201 201 206 211 217 220 219 217 213 212 212 216 217 220 228 230 234 240 245 252 256 255 247 243 240 233 227 215 198 191 192 193 195 201 203 202 205 204 204 206 206 208 202 194 194 203 216 223 222 225 230 233 233 229 230 228 231 240 240 243 236 217 210 231 249 244 224 216 225 228 236 280 328 336 341 347
44 38 329 307 341 313 250 233 226 207 218 229 194 283 294 216 223 240 217 200 198 200 202 205 209 216 218 215 212 210 212 217 220 223 227 231 234 238 244 250 256 261 259 244 233 228 223 215 201 191 189 191 192 193 198 201 203 205 202 203 206 205 206 207 210 212 215 226 230 216 217 229 232 232 229 231 232 232 237 231 225 221 222 258 260 236 217 201 203 220 210 206 343 338 340 346 346
302 43 42 308 354 324 261 250 203 190 211 190 158 263 278 247 239 222 199 197 191 194 202 205 208 212 214 213 213 213 215 220 223 227 231 234 239 243 249 256 260 263 258 240 224 219 213 200 194 190 188 191 191 193 195 193 198 201 202 207 206 206 210 209 210 218 230 240 235 210 208 219 221 222 219 217 212 204 210 204 202 202 200 226 227 207 200 201 211 226 218 277 330 333 338 337 330
293 3 26 352 354 280 295 10 160 169 218 177 147 217 262 267 259 206 194 198 193 196 202 205 208 210 213 213 214 217 218 221 225 227 231 235 238 243 249 254 257 258 254 238 217 215 204 187 188 191 190 192 191 194 195 194 199 196 199 209 205 207 212 209 209 220 237 247 228 205 202 208 212 214 217 222 215 201 201 200 196 192 181 183 197 197 205 219 216 231 267 311 325 324 325 323 319
32 12 310 329 180 260 309 267 168 164 199 176 151 224 262 274 266 208 193 196 198 202 204 206 209 210 212 213 215 218 220 221 222 224 228 232 235 240 244 247 248 246 246 234 213 209 198 180 178 181 186 192 192 194 195 200 205 195 196 202 198 201 211 216 222 229 235 239 228 211 203 206 213 228 236 226 206 195 194 196 194 193 186 180 182 187 236 266 270 268 292 317 320 322 326 333 23
357 158 245 272 195 266 321 282 189 165 141 182 195 223 257 286 264 197 190 195 200 205 208 208 209 211 212 214 216 218 220 220 219 220 224 227 230 234 238 241 239 234 233 224 208 201 193 180 178 180 182 185 190 194 196 199 201 196 201 210 213 216 220 227 226 220 220 225 221 208 203 210 221 238 235 202 185 185 190 198 201 195 188 179 177 215 263 270 276 283 308 325 336 9 63 101 100
314 302 233 245 208 222 289 306 240 163 144 200 224 235 245 270 241 186 192 198 202 207 213 212 211 212 213 214 216 219 221 221 219 216 219 223 225 229 232 235 229 224 219 208 200 194 185 175 178 184 184 187 194 197 198 199 199 203 207 210 220 220 215 218 213 209 215 210 200 197 202 209 208 204 190 177 175 174 172 175 179 178 183 197 208 226 237 247 271 300 345 48 74 87 100 101 98
200 192 214 255 240 224 241 279 230 165 169 206 203 240 251 262 258 203 201 201 206 214 217 215 214 213 213 215 216 220 223 224 221 215 216 220 222 226 231 229 220 216 209 198 192 186 178 170 169 176 179 183 189 190 190 191 192 200 202 198 206 205 193 192 195 197 196 189 186 186 179 181 180 162 153 153 154 157 160 166 179 184 193 206 206 211 216 227 279 68 89 93 93 97 99 97 99
169 176 168 195 231 251 232 251 232 179 181 219 205 225 243 252 253 223 212 208 212 222 224 221 219 215 214 217 219 222 224 224 221 215 215 219 220 223 228 225 215 210 205 196 189 180 176 174 168 169 178 182 183 185 191 198 196 196 196 195 202 200 184 181 183 181 177 177 182 175 160 159 160 150 149 149 146 153 163 171 178 175 175 181 189 205 192 132 108 101 98 92 89 91 92 93 96
141 141 164 198 223 265 252 263 267 185 174 240 221 223 241 244 250 242 222 211 216 225 228 227 223 217 217 218 220 222 224 223 221 216 213 215 218 220 221 219 210 203 200 194 184 178 177 176 173 172 174 179 185 192 201 203 195 191 194 194 193 190 181 175 171 170 175 178 173 165 158 156 149 142 143 147 151 158 161 159 163 164 167 177 178 159 128 117 110 102 93 85 80 77 83 89 93
169 164 223 253 230 256 256 254 280 182 173 257 243 234 250 245 250 256 225 199 218 224 221 226 224 219 219 219 220 221 221 219 218 216 211 211 216 217 216 213 208 200 196 191 180 178 180 177 179 181 180 181 183 189 195 191 180 179 190 188 181 177 171 169 171 173 176 173 166 163 165 163 157 154 152 155 162 167 172 174 173 161 147 143 138 127 119 115 110 106 100 91 82 71 79 88 90
225 210 243 267 244 273 279 268 288 173 179 257 272 255 255 251 252 254 224 205 224 228 223 226 224 219 218 217 218 218 216 215 216 215 211 211 215 214 211 209 203 196 193 190 182 180 182 180 178 182 186 186 181 181 186 182 177 178 184 180 179 181 175 173 177 174 174 177 173 168 170 170 172 174 170 171 173 168 170 166 152 139 130 127 127 123 118 112 104 98 89 79 77 75 86 95 92
220 208 204 250 248 256 276 283 300 286 223 262 289 279 265 262 265 258 239 229 232 236 233 231 228 223 222 219 219 218 216 214 213 212 210 209 212 210 208 206 194 191 193 188 185 183 181 183 184 180 182 183 177 182 186 185 182 177 177 178 183 191 189 188 192 191 192 192 181 175 176 174 176 174 161 156 153 146 144 141 135 132 127 120 115 110 102 90 74 65 56 51 52 55 68 78 81
234 209 198 228 238 221 234 286 321 332 331 328 313 295 274 240 243 251 247 236 235 240 236 233 231 229 227 222 219 219 219 218 215 212 211 210 212 208 205 202 190 191 195 188 186 185 178 180 184 177 175 181 180 180 180 181 179 174 179 186 189 196 198 203 208 198 188 181 174 170 166 159 156 150 141 140 139 136 134 130 126 124 117 108 100 87 70 62 52 45 40 33 24 22 31 39 47
257 223 206 218 225 224 231 327 5 354 323 313 3 294 279 240 231 247 258 248 240 238 231 231 230 225 224 222 219 217 217 219 219 219 217 214 211 205 201 198 192 193 196 189 186 186 182 179 181 179 180 188 188 185 186 190 195 198 204 203 202 206 203 198 192 174 164 163 160 155 148 144 143 140 137 136 135 133 129 123 119 111 104 97 84 66 55 52 44 38 34 25 17 20 24 18 18
257 237 206 209 206 207 219 174 42 276 267 294 75 198 277 279 217 232 240 240 250 242 232 236 230 220 219 220 219 215 213 213 214 218 219 214 209 205 201 198 194 194 193 188 185 185 185 183 182 184 186 187 185 186 191 199 208 215 219 217 218 214 191 171 163 157 155 154 151 146 143 142 142 141 139 136 132 129 124 119 112 102 93 81 68 53 46 43 35 34 34 26 24 29 26 16 22
243 244 175 178 184 198 213 188 207 236 261 310 46 129 277 281 242 209 192 207 253 255 246 244 231 221 219 218 217 215 212 211 210 211 214 212 209 206 204 198 194 195 193 189 187 185 184 184 185 182 183 187 188 191 198 205 213 219 222 220 212 196 173 157 154 154 153 151 148 146 145 145 144 143 139 136 131 126 119 111 101 89 74 64 57 43 35 35 31 31 31 28 29 30 25 22 27
246 207 129 144 165 173 155 154 201 289 359 294 236 132 259 278 273 126 185 215 248 255 251 247 232 223 221 217 216 214 211 211 211 213 214 211 208 206 204 199 194 195 194 191 190 187 185 187 192 191 193 197 200 204 209 212 216 217 214 203 183 172 164 155 153 154 153 153 151 149 149 147 146 145 141 136 130 122 115 103 90 75 61 54 46 33 30 32 28 26 26 25 24 21 22 23 22
205 131 92 73 72 76 84 117 134 47 314 242 203 163 232 272 251 107 121 231 241 250 250 253 239 228 223 216 213 211 208 208 210 214 215 211 207 205 202 199 197 194 192 191 191 191 191 191 192 197 201 203 204 205 205 204 202 195 187 179 170 165 162 157 156 157 156 156 155 152 152 152 149 148 143 138 131 122 112 96 82 67 55 47 38 33 31 30 27 25 23 22 20 18 19 18 15
131 102 61 46 32 35 49 50 82 41 276 229 187 179 190 272 271 162 190 220 224 237 254 271 249 226 222 216 211 209 207 206 207 209 210 209 205 203 200 199 198 196 194 194 194 194 196 194 196 201 203 203 202 199 196 191 183 177 173 171 169 166 163 161 160 160 159 159 160 157 156 156 153 151 147 141 134 121 109 95 81 64 53 46 39 36 33 29 27 25 23 21 18 15 15 13 11
114 88 78 67 348 8 24 354 56 218 263 227 184 182 186 232 262 226 235 261 238 219 241 265 243 221 221 217 213 210 206 205 205 204 205 203 201 199 198 198 199 199 197 195 195 195 194 196 202 204 201 200 198 192 187 181 173 171 172 173 174 171 167 166 165 164 163 164 168 165 163 163 158 155 151 145 138 123 110 98 81 63 54 48 41 36 32 29 27 25 23 20 16 13 13 11 8
97 99 110 112 309 3 2 310 137 223 261 270 186 179 204 237 257 257 256 268 260 233 237 253 253 236 225 217 213 209 205 204 203 203 203 202 200 199 198 198 200 201 197 194 195 195 195 198 203 201 197 195 192 187 182 176 172 173 176 177 178 175 171 170 169 169 167 169 174 172 170 169 165 163 156 148 142 127 117 101 80 66 55 47 41 36 32 30 28 26 21 16 13 11 10 8 4
151 142 142 155 168 191 257 246 255 255 272 302 184 174 257 273 270 248 242 255 266 268 264 263 263 255 238 223 214 208 204 204 204 204 203 203 202 201 200 200 201 201 197 193 194 196 197 199 200 198 197 192 187 185 179 175 174 176 179 182 182 179 175 173 174 175 172 172 175 175 173 173 173 170 161 156 150 134 123 104 82 67 55 46 40 36 32 31 27 21 16 11 7 5 5 3 357
181 154 141 161 162 175 217 209 224 254 283 303 258 171 210 204 248 242 240 266 281 283 276 267 262 257 243 220 209 205 204 203 204 205 206 206 205 204 203 201 201 201 197 194 194 197 197 197 197 197 197 191 185 183 180 176 177 178 182 185 185 183 180 176 177 180 179 178 179 180 180 179 178 175 168 164 157 140 126 106 89 69 54 45 40 37 31 28 21 14 9 3 360 359 358 358 354
227 111 122 185 181 175 207 200 182 180 291 290 220 219 221 205 265 267 256 274 277 274 273 263 252 243 219 203 201 203 204 203 204 205 206 206 206 206 205 203 202 201 199 196 195 196 197 196 197 197 195 190 185 184 183 180 179 181 183 186 187 186 184 183 182 183 183 184 186 188 187 184 181 178 174 172 164 146 133 118 101 77 60 49 43 38 28 21 14 5 1 356 355 356 354 355 354
162 127 175 199 154 157 205 259 122 117 270 265 195 242 284 302 282 283 271 262 267 272 265 242 231 214 197 197 199 201 203 203 205 206 206 206 207 208 206 204 203 201 201 198 195 196 196 196 197 196 194 191 187 187 186 184 183 184 185 188 190 190 189 189 189 188 187 187 189 190 190 187 183 181 181 179 175 161 155 151 131 108 82 65 51 38 23 14 6 357 355 353 352 351 349 349 346
131 183 197 148 63 115 145 266 331 112 257 270 202 231 262 245 267 319 19 262 261 262 251 236 223 203 198 200 199 200 202 202 204 205 206 208 210 209 206 205 204 202 202 200 197 197 198 198 199 196 194 193 191 190 190 189 188 187 188 190 192 193 193 193 194 195 195 194 195 193 192 191 187 187 190 188 185 181 177 172 157 142 115 91 63 37 15 2 358 353 348 346 342 340 337 336 335
130 184 176 125 127 196 129 194 224 196 243 277 253 235 231 202 224 291 275 236 248 253 239 231 223 207 204 202 198 198 198 200 202 204 206 210 211 210 207 205 204 203 203 201 199 199 200 201 202 200 198 196 195 194 192 192 192 191 192 193 194 196 195 196 197 199 201 201 201 198 195 195 194 194 196 194 193 191 186 181 170 165 154 134 92 18 357 347 345 338 334 333 330 328 327 328 329
45 98 149 115 141 176 168 180 177 167 215 257 290 285 240 222 210 208 225 230 236 242 233 227 223 212 207 203 197 197 198 200 203 205 208 210 211 210 207 205 204 202 203 202 201 201 202 203 204 203 202 200 199 198 195 195 196 195 196 197 198 199 198 200 201 203 205 204 203 202 199 199 200 199 199 197 195 193 189 187 183 182 184 185 220 307 318 319 321 319 320 320 318 319 319 319 319
143 152 173 176 128 110 179 220 140 141 177 212 279 286 257 242 209 196 221 234 232 232 231 235 230 217 212 207 202 202 202 203 205 206 208 209 209 209 206 205 204 203 204 204 203 204 204 205 205 203 203 203 202 201 200 200 199 198 200 201 201 201 201 202 204 205 207 206 204 204 202 202 203 202 201 199 196 194 192 194 195 197 202 214 241 274 287 292 300 306 309 309 310 312 311 310 309
178 187 186 179 170 139 178 239 197 146 188 178 211 270 260 237 197 200 223 242 249 248 242 250 244 224 216 212 208 208 207 207 208 208 208 209 208 208 206 204 204 204 205 205 205 205 206 206 205 204 205 206 205 205 204 204 203 202 203 204 204 204 204 205 206 207 208 207 207 205 204 205 205 203 201 199 198 198 199 201 204 207 213 224 244 259 268 278 290 299 303 304 303 303 302 301 302